Погода в Майском

Россия / Республика Северная Осетия — Алания     43°11′11″N   44°43′25″E
темп.,
°C
ветер,
м/с
пор.,
м/с
влажн.,
%
обл.,
%
осадки,
мм/ч
давл.,
гПа
погр.,
м
21 января, чт
чт2100:00−6зюз1195100 0.8 1028142
03:00−8юз1296100 1.0 102922
06:00−9ююз228966 0.0 103122
09:00−7юз117134 0.0 103163
12:00−3сз01630 0.0 1032321
15:00−2сз12570 0.0 1031532
18:00−6юв12700 0.0 103421
21:00−6ю22710 0.0 103521
22 января, пт
пт2200:00−5ю22550 0.0 103522
03:00−5ююв12500 0.0 103421
06:00−5ю22500 0.0 103321
09:00−1ююв12510 0.0 103223
12:00+3всв12520 0.0 1030138
15:00+3всв23540 0.0 1028102
18:00−1в23550 0.0 103022
21:00−2вюв23680 0.0 103027
23 января, сб
сб2300:00−2юв12670 0.0 103021
03:00−2юв11600 0.0 102821
06:00−3ююв01530 0.0 102921
09:00−1зюз11520 0.0 102821
12:00+2зсз11440 0.0 1026265
15:00+3ссв11460 0.0 1024273
18:00−2юв01590 0.0 102621
21:00−2ююз11630 0.0 102621
24 января, вс
вс2400:00−2юв01630 0.0 102521
03:00−2юз11630 0.0 102421
06:00−2ююв01600 0.0 102421
09:000в11490 0.0 102321
12:00+4св22400 0.0 1021194
15:00+4всв23470 0.0 1020206
18:00−1в125944 0.0 102121
21:000вюв116166 0.0 102121
25 января, пн
пн2500:000вюв116375 0.0 102022
03:000вюв115886 0.0 102022
06:00+1зсз015594 0.0 102022
09:00+3ю015170 0.0 102022
12:00+7св114141 0.0 1018164
15:00+5св125769 0.0 101758
18:00+1в11680 0.0 101822
21:00+1вюв016817 0.0 101922